Dewpoint
73 73 73 72 72 72 72 72 72 72 72 73 73 73 73 73 73 73 73 72 72 71 71 71 71 71 70 70 69 69 69 69 69 68 68 68 68 68 67 67 67 67 67 67 67 66 65 63 61 60 61 62 63 63 64 65 65 65 65 65 65 66 66 67 67 68 67 67 67 67 67 67 67 67 67 67 67 66 66 66 66 66 66 66 66 66 66 66 66 66 66 65 65 65 66 66 66 66 66 66 66 66 65
73 73 72 72 71 71 72 72 72 72 73 72 72 72 73 73 73 73 73 72 72 71 71 71 71 70 70 70 69 69 69 69 69 68 68 68 68 67 67 67 67 67 66 66 66 66 65 62 60 60 61 62 63 64 64 65 65 65 65 65 65 65 66 67 67 67 67 67 67 67 67 67 67 67 67 67 67 66 66 66 66 66 66 66 66 66 66 66 66 65 65 64 64 64 65 65 65 65 66 66 65 65 64
73 72 72 71 71 72 72 72 72 73 73 72 72 72 72 72 73 73 72 72 71 71 71 71 71 70 70 69 69 69 69 69 68 68 68 68 68 67 67 66 66 66 66 66 66 65 64 62 60 60 61 62 62 63 63 64 64 64 64 65 65 65 66 67 67 67 67 67 67 67 67 67 66 66 66 66 66 66 66 66 66 66 66 66 66 66 66 65 65 64 64 63 63 63 63 64 64 64 64 64 64 64 64
72 72 71 71 71 72 72 72 72 72 72 72 71 71 71 72 72 72 72 72 71 71 71 71 70 70 70 69 69 69 69 69 68 68 68 68 67 67 66 66 66 66 66 66 65 63 61 61 60 60 61 61 62 62 63 63 63 64 64 65 65 66 67 67 67 67 67 67 67 66 66 66 66 66 66 66 66 66 66 66 66 66 66 66 65 65 65 64 64 63 63 63 63 63 63 63 63 63 63 63 63 63 63
72 71 71 71 72 72 72 72 72 72 72 72 71 71 71 71 71 72 72 71 71 71 71 71 70 70 69 69 69 69 69 69 68 68 68 67 67 66 66 66 66 66 66 66 64 62 59 60 60 59 60 60 61 62 62 63 63 63 63 64 65 66 67 67 67 67 67 66 66 66 66 66 66 66 66 66 66 65 65 65 65 65 65 65 65 64 64 63 63 63 63 63 63 63 63 63 63 63 63 63 63 63 63
72 71 71 71 72 72 72 72 72 72 72 71 71 71 71 71 71 71 71 71 71 71 71 71 70 70 69 69 69 69 69 68 68 68 67 67 66 66 66 66 66 66 66 66 64 62 60 58 58 58 59 60 60 61 61 62 62 62 63 63 65 66 66 66 66 66 66 66 66 66 66 66 65 65 65 65 65 65 65 65 64 64 64 64 64 64 63 63 63 63 63 64 64 64 64 64 64 64 64 64 64 64 64
72 71 71 71 72 72 72 72 72 72 72 71 71 71 71 71 71 71 71 71 71 71 71 70 70 70 69 69 69 68 68 68 68 67 67 66 66 66 66 66 66 66 66 66 65 62 61 58 58 58 59 59 59 60 61 62 62 62 62 62 64 65 66 66 66 65 65 65 65 65 65 65 65 65 64 64 64 64 64 64 64 64 63 63 63 63 63 63 63 64 64 64 64 64 64 64 64 64 64 65 65 65 65
71 71 71 71 72 72 72 72 72 72 72 71 71 71 71 71 71 71 71 71 71 71 70 70 70 70 69 69 69 68 68 68 68 67 66 66 66 66 66 66 66 66 66 66 65 63 62 60 59 59 60 60 61 61 62 62 62 62 62 62 64 65 66 66 66 65 65 65 65 65 65 65 64 64 64 64 64 64 64 64 64 64 63 63 63 63 64 64 64 64 65 65 65 64 64 64 64 64 65 65 65 65 65
71 71 71 71 72 72 72 72 72 72 71 71 71 71 71 71 71 71 71 71 71 71 70 70 70 69 69 69 68 68 68 68 67 67 66 66 66 66 66 66 66 66 65 65 64 63 62 61 60 61 61 62 62 63 63 62 62 62 62 63 65 66 66 66 66 66 66 66 65 65 65 64 64 64 63 64 64 64 64 64 64 64 64 64 64 64 64 65 65 65 65 65 65 65 64 64 64 64 64 65 65 65 65
71 71 71 71 71 72 72 72 72 72 71 71 71 71 71 70 70 71 71 71 71 70 70 70 70 69 69 69 68 68 68 68 67 66 66 66 66 66 65 66 65 65 65 64 64 63 62 60 60 60 61 62 62 62 62 62 62 62 62 65 66 66 66 66 66 66 66 66 66 65 65 64 64 63 63 64 64 64 65 65 65 65 65 64 64 65 65 65 65 65 65 65 65 65 65 65 64 64 64 65 65 65 64
71 71 71 71 71 71 72 72 72 71 71 71 71 71 70 70 70 70 70 71 70 70 70 70 69 69 69 69 68 68 68 67 67 66 66 66 65 65 65 66 65 65 64 64 64 63 62 60 59 60 61 61 62 62 62 62 62 62 62 65 66 66 66 66 66 66 66 66 66 65 65 64 64 63 63 63 64 64 65 65 65 65 65 65 65 65 65 65 65 65 65 65 65 65 65 65 65 65 65 65 65 64 64
71 71 71 71 71 71 71 71 71 71 71 71 71 71 70 70 70 70 70 71 70 70 70 69 69 69 69 69 68 68 68 67 67 66 66 66 65 65 65 66 66 65 64 63 63 62 61 59 59 60 60 61 61 62 61 62 62 62 62 64 66 66 66 66 66 66 66 66 66 65 65 65 64 63 63 63 63 63 64 64 64 65 65 65 65 65 64 64 64 64 64 64 64 64 64 64 65 65 65 65 64 64 63
71 71 71 71 71 71 71 71 71 71 70 71 71 71 70 70 71 71 71 71 71 70 70 69 69 69 69 69 68 68 68 67 66 66 66 66 66 66 66 66 66 65 64 62 62 61 59 59 59 60 60 61 61 61 62 62 62 62 63 64 65 66 66 66 66 66 66 66 66 65 65 65 64 64 63 63 63 63 63 63 63 64 64 64 64 64 64 64 64 64 64 64 64 64 64 64 64 64 64 64 64 64 63
71 71 70 70 70 71 71 71 70 70 70 71 71 71 70 70 71 71 71 71 71 70 69 69 69 69 69 69 68 68 67 67 66 66 66 66 66 66 66 66 66 65 64 62 59 58 59 60 60 61 61 62 62 62 63 62 62 62 64 64 64 65 65 66 66 66 66 66 65 65 65 64 64 63 63 63 63 62 62 62 62 63 63 63 64 64 64 64 64 64 64 64 64 64 64 64 64 64 64 64 64 64 64
70 69 68 69 70 70 70 70 70 70 71 71 71 71 70 70 71 71 71 71 70 70 69 69 69 69 69 69 68 68 67 67 67 66 66 66 66 66 66 66 66 65 64 60 57 57 58 59 60 61 62 62 62 63 63 63 63 63 64 64 64 64 65 65 65 65 65 65 65 64 64 64 63 63 63 63 62 62 62 62 62 62 62 62 63 63 63 63 63 63 63 63 63 63 63 63 63 63 63 64 64 64 64
67 67 67 69 69 70 70 70 70 70 71 71 71 71 70 70 70 71 71 70 70 69 69 69 69 69 69 69 68 68 67 67 67 67 66 66 66 66 66 66 66 64 63 59 57 56 57 58 60 61 62 62 62 63 63 63 64 64 64 64 64 64 64 64 64 64 64 64 64 64 63 63 63 63 63 62 62 62 62 62 62 62 62 62 62 62 62 62 63 63 63 63 63 63 62 62 62 63 63 63 63 63 63
66 66 67 68 69 69 69 70 70 70 71 71 71 71 70 70 70 70 70 70 69 69 69 69 69 69 69 68 68 67 65 65 66 66 66 66 66 66 66 66 65 63 61 58 56 56 57 57 59 60 60 61 62 62 62 63 64 65 65 64 64 64 64 63 63 63 64 64 63 63 63 63 63 63 63 63 63 62 62 62 62 62 62 62 62 62 62 62 62 62 62 62 62 62 62 62 62 62 62 62 62 62 62
66 67 68 69 69 69 69 70 70 71 71 71 71 70 70 70 69 69 69 69 69 69 69 69 69 69 68 68 67 66 63 63 63 64 65 66 66 66 66 65 64 62 61 58 57 56 57 57 58 59 60 60 61 62 63 63 65 66 65 65 64 64 64 63 63 63 63 63 63 63 63 64 64 64 64 63 63 62 62 62 62 62 62 62 62 62 62 62 61 61 61 61 61 61 61 61 61 62 62 62 62 62 62
66 67 68 68 69 69 69 70 70 71 71 71 71 70 70 69 69 69 69 69 69 69 69 69 69 68 68 67 66 64 63 62 62 63 63 63 64 64 64 64 62 61 61 58 57 57 57 57 58 59 60 60 61 62 63 64 66 66 66 65 65 65 64 64 64 64 63 63 63 63 64 64 64 64 64 64 63 63 62 62 62 62 62 62 62 62 62 62 61 61 61 61 60 60 60 60 61 61 61 61 61 61 61
66 68 68 68 68 69 69 70 70 70 71 71 70 70 70 69 69 69 69 69 70 69 69 69 69 68 68 66 64 63 63 62 62 63 63 63 62 62 62 63 62 61 59 57 57 57 57 58 59 59 60 61 62 62 62 64 66 66 66 66 65 65 65 65 64 64 64 64 63 63 63 63 64 64 64 64 64 63 63 62 62 62 62 62 62 62 62 62 62 62 61 60 60 60 60 60 60 60 60 60 61 61 61
67 67 67 68 68 69 69 70 70 70 70 70 69 69 69 69 69 69 69 70 70 69 69 69 68 66 66 64 63 62 62 62 62 63 63 62 62 62 62 62 62 60 57 57 58 58 58 59 59 60 61 62 62 63 63 64 66 66 66 66 65 65 65 65 65 64 64 64 63 63 63 63 63 63 64 64 64 63 63 62 62 62 62 62 62 62 62 62 62 62 61 60 60 60 60 60 60 60 60 60 60 60 60
67 67 67 67 67 68 69 69 69 69 70 70 69 68 68 68 68 69 69 69 69 69 68 67 66 65 64 62 62 62 62 62 62 62 62 62 62 62 62 62 61 58 56 57 58 59 59 60 60 61 62 63 63 63 63 65 66 66 66 66 65 65 65 65 65 65 64 64 64 63 63 63 63 63 63 63 63 63 63 62 62 62 62 61 62 62 62 62 62 62 62 61 60 60 60 60 60 60 60 60 60 60 60
67 67 67 67 67 67 68 68 68 69 69 69 68 67 67 67 68 68 68 68 68 67 67 66 65 64 63 62 61 60 61 60 60 60 60 61 61 61 62 60 58 56 56 57 58 59 60 60 61 62 63 64 64 64 64 66 66 66 66 66 65 65 65 65 65 65 64 64 64 63 63 63 63 63 63 63 63 63 63 62 62 62 62 61 61 61 62 62 62 62 62 61 61 60 60 60 60 60 60 60 60 60 60
67 67 67 67 67 67 67 67 68 68 69 68 67 67 67 67 67 68 68 68 68 67 66 65 64 63 62 61 59 58 59 58 59 59 58 59 59 60 60 57 56 56 56 57 58 59 60 61 61 62 63 64 64 64 64 66 66 66 66 66 65 65 64 64 64 64 64 64 64 64 64 63 63 63 63 62 62 62 62 62 62 62 62 62 61 61 61 61 62 62 62 62 61 61 60 60 60 60 60 60 60 60 60
66 66 66 66 66 66 67 67 67 68 68 67 67 67 67 67 67 68 68 68 67 67 66 65 64 63 63 61 58 57 57 57 57 57 57 57 58 58 57 55 55 56 56 57 58 59 60 61 62 62 63 64 64 64 63 65 66 67 66 66 65 65 64 64 64 64 64 64 64 64 64 64 63 63 63 62 62 62 62 62 62 62 62 62 61 61 61 61 61 62 62 62 62 61 61 61 60 60 60 60 60 60 60
66 66 66 66 66 66 66 66 67 67 67 67 66 66 66 67 67 67 67 67 67 66 66 64 63 63 63 62 59 56 56 56 56 56 56 56 57 56 54 54 55 56 56 57 57 59 60 61 62 62 63 64 64 63 63 65 66 67 67 66 66 65 64 64 64 64 64 64 64 64 64 64 64 63 63 62 62 62 62 62 62 62 62 62 62 61 61 61 61 61 61 62 62 62 61 61 61 61 61 60 60 60 60
66 66 66 66 65 66 66 66 66 66 66 66 66 66 66 66 66 66 66 66 66 66 65 63 63 62 62 62 59 56 55 55 55 55 55 56 56 55 53 54 55 55 56 56 57 58 60 61 62 62 63 64 64 63 62 64 66 67 67 67 66 66 65 64 64 64 65 65 65 65 64 64 64 63 63 63 62 62 62 62 62 62 62 62 62 62 61 61 61 61 61 61 61 61 61 61 61 61 61 60 60 60 60
66 66 66 65 65 65 66 66 66 66 66 65 66 66 66 66 66 66 66 65 65 65 64 63 62 62 62 62 59 56 55 55 55 55 55 55 55 54 53 54 54 55 55 56 57 58 60 61 61 62 62 63 64 63 62 63 65 66 67 67 67 67 66 65 65 64 65 65 65 64 64 64 64 64 63 63 63 63 62 62 62 62 62 62 62 62 62 61 61 61 60 60 60 60 61 61 61 61 61 60 60 60 60
65 65 65 65 65 65 66 66 66 65 65 65 65 65 65 65 65 64 64 64 63 63 62 62 62 61 61 60 57 56 55 55 55 55 55 55 54 54 54 54 54 54 55 55 56 57 59 60 61 62 62 63 63 63 63 63 64 65 66 66 67 67 67 66 66 65 65 65 64 64 64 64 64 64 64 64 63 63 63 62 62 62 61 61 61 61 61 61 61 61 61 60 60 60 60 60 60 60 61 60 60 60 60
64 64 64 64 65 65 66 66 65 65 64 64 64 64 65 64 64 63 62 62 62 62 62 62 61 60 58 57 56 56 56 56 55 55 55 54 54 53 54 54 54 54 54 54 55 56 58 59 60 61 62 62 63 63 63 62 63 64 65 66 66 67 68 67 67 66 65 65 65 65 64 64 64 64 64 64 64 63 63 63 62 62 62 61 61 61 61 61 61 61 61 61 61 60 60 60 60 60 60 60 60 60 60
64 64 64 64 64 65 65 65 65 64 64 64 64 64 64 64 63 62 62 61 61 61 61 61 60 58 56 56 55 55 56 56 55 54 54 54 53 53 54 54 54 54 53 53 54 55 57 58 59 60 61 62 62 62 63 62 62 63 65 65 66 66 67 67 68 67 66 65 65 65 65 65 65 64 64 64 64 64 63 63 63 62 62 62 62 61 61 61 61 61 61 62 61 61 61 60 60 59 60 60 60 60 60
63 63 63 63 63 64 65 65 64 64 64 63 63 63 63 63 63 62 61 61 60 60 61 60 58 57 55 55 55 55 56 55 55 54 54 53 53 53 54 54 53 53 53 53 53 54 56 57 58 58 59 60 62 62 63 63 62 62 63 64 65 65 66 66 67 67 67 67 66 66 65 65 65 65 65 64 64 64 64 64 63 63 63 63 62 62 62 62 62 62 62 62 62 62 62 61 61 60 60 60 60 60 60
62 62 62 62 63 63 64 64 64 63 63 63 62 62 63 63 62 62 61 61 60 60 60 58 57 56 55 54 54 54 55 54 54 54 53 53 53 53 53 53 53 53 53 53 53 53 54 56 57 57 58 59 60 61 62 63 62 62 62 63 64 64 65 66 66 67 67 68 67 67 66 66 66 65 65 65 65 65 64 64 64 64 64 63 63 63 63 62 62 62 62 62 62 62 62 62 62 61 61 61 60 60 60
61 62 62 62 62 62 62 63 63 63 63 62 62 62 62 62 62 61 60 60 59 59 58 57 56 55 54 54 54 54 54 54 54 53 53 53 53 53 53 53 53 53 53 53 53 53 53 54 55 56 57 58 59 60 61 62 62 62 62 62 62 63 64 65 66 66 66 67 67 67 67 67 66 66 66 65 65 65 65 65 65 64 64 64 64 64 63 63 63 63 63 63 62 62 62 62 62 62 62 62 61 61 61
61 61 61 61 62 62 62 62 62 62 62 62 62 62 61 61 60 60 59 58 57 57 56 55 55 54 54 54 53 53 53 53 53 53 53 53 53 53 53 53 53 53 53 52 52 53 53 53 54 55 56 57 57 58 59 60 61 62 63 62 62 62 64 64 65 65 65 66 67 67 67 67 67 67 66 66 66 66 65 65 65 65 65 65 64 64 64 64 64 64 64 64 64 63 63 63 62 62 62 62 62 62 62
60 60 61 61 61 61 61 62 62 62 62 61 61 60 60 60 59 58 58 57 57 56 55 55 54 54 53 53 53 53 53 53 53 53 53 53 53 53 53 53 53 53 52 52 52 52 52 52 52 53 54 56 56 57 57 58 59 61 62 62 62 62 62 63 64 64 65 65 66 66 67 67 67 67 67 67 66 66 66 66 66 66 65 65 65 65 65 65 65 65 65 65 65 64 64 64 63 63 63 63 63 63 63
59 60 60 60 60 60 60 61 61 61 61 60 60 59 59 58 58 58 57 57 56 55 55 54 54 54 54 53 53 53 53 53 53 53 53 53 53 53 53 53 53 53 53 52 52 52 52 51 51 52 53 54 55 55 55 56 57 58 59 61 61 62 62 62 62 63 63 64 65 66 66 67 67 67 67 67 67 67 66 66 66 66 66 66 66 65 65 65 65 65 65 65 65 65 65 65 65 64 64 64 64 64 64
59 59 59 59 59 59 60 60 60 60 60 59 59 58 58 58 57 57 57 56 55 55 55 54 54 54 54 53 53 53 53 53 53 53 53 53 53 53 53 53 53 53 53 53 53 52 51 51 51 51 51 53 53 54 54 54 55 56 57 58 59 60 61 61 61 61 62 62 63 64 66 66 66 66 66 66 66 66 66 66 66 66 66 66 66 66 66 66 65 65 65 65 65 66 66 66 66 65 65 65 65 64 64
58 59 59 59 59 59 59 59 60 60 59 58 58 58 57 57 57 57 56 56 55 55 54 54 54 54 54 53 53 53 54 53 53 53 53 53 53 53 53 53 53 53 53 53 53 53 52 52 51 51 51 51 52 53 53 54 54 54 55 56 57 58 58 59 59 59 60 61 62 63 65 65 66 66 66 66 66 66 66 66 66 66 66 66 66 66 66 66 66 66 66 66 66 66 66 66 66 66 66 66 66 66 65
58 58 58 58 58 58 58 59 59 59 58 58 57 57 57 57 57 56 56 55 55 54 54 54 54 53 53 53 53 53 53 53 53 53 53 53 53 53 53 53 53 53 53 53 53 53 53 53 52 52 51 51 52 52 53 53 53 54 54 54 55 56 56 57 57 57 57 58 59 60 62 64 64 65 66 66 66 66 66 66 66 66 66 66 66 66 66 66 66 66 66 65 65 65 65 65 66 66 66 66 66 66 66
58 58 58 58 58 58 58 59 59 58 58 57 57 57 57 57 56 56 56 55 54 54 54 54 53 53 53 53 53 53 53 53 53 53 53 53 53 53 53 53 53 53 53 54 54 53 53 53 52 52 52 52 52 52 52 53 53 53 54 54 54 54 55 55 56 55 55 55 56 57 59 62 63 63 64 65 65 66 66 66 66 66 66 66 65 65 65 65 65 65 65 65 65 65 64 65 65 65 65 66 66 66 66
58 58 58 58 58 58 58 58 58 58 57 57 57 57 57 57 56 56 55 55 54 54 53 54 54 53 53 53 53 53 53 53 53 53 52 52 53 53 53 53 53 54 54 54 54 53 54 53 53 52 52 52 52 52 52 52 53 53 53 53 53 54 54 55 54 54 53 53 54 54 56 59 61 62 63 64 64 65 65 65 65 65 66 65 65 64 64 64 64 64 64 64 64 64 63 63 64 64 64 64 64 65 66
58 58 58 58 58 58 58 58 58 57 57 57 57 57 57 56 56 56 55 54 53 53 53 53 53 53 53 53 53 53 53 53 53 52 52 52 52 53 53 53 53 54 54 54 54 54 54 53 53 53 53 52 52 52 52 51 52 52 53 53 53 54 54 54 54 53 53 53 53 53 53 56 59 61 62 62 63 64 64 64 64 64 65 65 64 64 63 63 63 63 63 63 63 63 63 63 63 63 63 63 63 64 65
59 59 59 58 58 58 58 58 57 57 57 57 57 57 57 56 56 55 55 54 53 53 52 53 53 53 53 52 52 52 53 52 52 52 52 51 51 52 53 53 54 54 55 54 54 54 54 54 54 55 55 53 52 52 51 51 51 51 52 52 53 53 53 53 53 53 53 53 53 53 53 54 56 58 60 61 62 62 63 63 63 63 64 64 64 63 63 62 62 62 62 62 62 62 62 62 62 62 62 62 62 63 64
59 59 59 58 58 58 57 57 57 57 57 57 57 57 57 56 56 55 54 53 53 52 52 52 52 52 52 52 52 52 52 52 52 52 52 51 51 51 53 53 54 54 54 54 54 54 54 54 55 55 55 55 53 53 52 52 51 51 51 52 52 52 53 53 53 53 53 53 53 54 53 53 54 56 57 59 60 61 61 62 62 62 63 64 64 63 63 63 63 63 62 62 62 62 62 62 62 63 63 63 63 63 64
59 58 58 58 58 58 57 57 57 57 57 57 57 57 56 56 55 54 53 52 52 52 51 51 51 51 52 52 52 52 52 52 53 53 52 51 50 51 52 53 54 54 54 54 54 54 54 55 55 54 55 55 55 54 53 53 53 52 51 51 52 52 52 52 52 53 52 53 53 54 54 54 54 54 56 57 58 58 59 60 61 62 62 63 63 63 63 63 63 63 63 63 63 63 63 63 63 63 63 63 63 63 64
58 58 58 58 58 57 57 57 57 57 57 57 57 56 56 55 54 53 52 51 51 51 51 50 50 51 51 53 52 51 51 52 52 53 52 52 52 52 54 54 54 55 55 54 54 54 54 54 54 54 55 55 56 55 55 55 54 53 52 52 52 52 52 51 52 52 52 52 53 53 54 54 54 54 55 56 56 57 57 58 59 61 61 62 62 63 63 63 64 64 63 63 63 63 63 63 64 64 64 63 63 64 64
57 57 57 57 57 57 57 57 57 57 57 57 57 56 55 55 54 53 51 51 51 51 51 51 51 50 51 51 51 51 51 51 52 52 52 52 53 54 55 55 55 55 55 55 55 55 55 54 54 54 55 55 55 56 55 55 55 54 53 53 53 53 52 52 52 51 51 52 52 53 53 54 54 54 54 55 55 55 55 56 57 58 60 61 61 62 62 62 63 63 64 63 63 63 63 64 64 64 64 64 64 64 64
57 57 56 57 57 57 57 57 57 57 57 57 57 56 55 54 53 52 51 51 51 51 51 51 52 51 50 50 51 51 51 51 52 53 53 53 53 54 55 55 55 55 55 55 55 56 56 55 54 55 55 55 55 56 55 55 55 54 54 53 53 53 53 52 52 52 52 52 52 52 53 54 54 54 54 54 54 54 54 54 54 55 57 59 60 61 62 62 62 62 63 63 63 63 63 64 64 64 64 64 64 64 64
56 55 55 56 56 56 56 57 57 57 57 57 56 55 54 54 53 53 52 51 51 50 50 51 51 51 51 50 51 51 53 53 53 53 53 53 53 53 54 54 54 55 55 55 55 56 56 55 55 55 55 55 55 55 55 55 55 54 54 53 53 53 53 52 52 52 53 52 52 53 53 53 54 54 54 54 54 53 53 53 53 53 54 56 57 59 59 60 61 62 62 62 63 63 63 64 64 64 64 64 64 64 64
55 55 55 55 55 56 56 56 57 57 57 57 56 55 54 53 53 52 51 51 51 50 51 50 51 52 51 51 51 52 54 54 54 53 53 53 53 53 53 54 54 54 54 54 55 55 56 55 55 55 55 55 55 55 55 55 54 54 53 53 53 53 53 53 53 53 53 53 53 53 53 53 53 54 54 54 54 54 53 53 53 53 53 54 55 56 57 57 59 60 61 62 63 63 63 64 64 64 64 64 64 64 64
55 54 54 55 55 55 56 56 56 57 57 56 55 53 53 52 52 51 51 51 51 50 51 50 51 51 51 52 52 53 55 55 55 54 53 54 54 54 54 54 53 53 53 53 54 55 56 55 55 55 54 54 54 55 54 54 54 53 53 53 53 53 53 53 53 53 53 53 53 53 53 53 53 54 54 54 54 54 54 54 54 54 54 54 54 55 55 56 56 57 59 61 62 63 63 63 63 64 64 64 64 64 63
54 54 54 54 55 55 56 56 56 56 56 55 54 53 53 52 51 51 51 51 51 51 51 51 51 51 51 52 52 53 55 56 56 55 55 54 55 55 55 53 53 52 51 51 52 53 54 55 55 55 55 54 54 54 54 54 53 53 53 53 53 53 53 53 53 53 53 53 53 53 53 53 53 54 54 54 54 55 55 55 55 55 54 54 54 54 55 54 54 55 56 58 61 62 63 63 63 63 63 64 64 63 63
54 54 54 54 54 55 55 56 56 55 55 55 54 53 52 51 51 51 51 51 51 51 52 52 51 50 50 51 52 53 54 56 56 56 55 55 54 54 54 53 53 52 50 51 51 51 53 54 54 55 56 54 53 53 54 54 53 53 53 53 53 53 53 54 54 54 53 53 53 53 53 53 54 54 54 55 55 56 56 56 56 55 55 55 54 54 54 54 54 54 54 55 57 58 60 62 62 62 63 63 63 63 62
54 54 54 54 54 55 55 55 55 55 55 55 54 53 52 51 51 51 51 51 52 52 52 52 51 51 50 50 51 53 54 56 57 56 56 56 55 54 54 53 53 52 52 51 50 50 50 52 53 55 56 55 54 53 54 54 54 54 54 54 53 53 53 54 55 55 55 54 54 54 54 54 54 55 55 55 56 56 56 56 56 56 56 56 55 55 54 54 54 53 54 54 55 55 57 60 62 62 62 62 62 62 62
54 54 54 54 54 54 55 55 55 55 55 54 53 53 52 52 51 51 51 52 52 52 52 52 51 51 51 51 51 53 54 56 56 56 56 57 57 56 54 53 52 51 50 50 49 48 47 49 53 55 55 55 54 54 54 55 55 55 56 55 55 54 55 55 55 55 55 56 56 55 55 55 55 55 55 55 56 56 56 56 56 56 56 56 56 55 55 54 54 54 54 54 54 54 56 59 61 62 62 62 62 62 62
55 54 54 54 54 55 55 55 55 55 54 54 53 53 53 52 52 51 51 52 52 53 53 53 52 52 52 52 53 53 54 55 56 57 57 57 57 57 55 53 52 50 49 49 50 51 52 52 53 53 53 55 55 54 54 55 55 55 55 55 54 54 55 55 55 55 55 55 55 55 55 55 55 55 55 55 55 56 56 56 56 56 56 56 56 55 55 55 55 55 55 55 55 55 55 58 60 62 62 62 62 62 62
55 55 55 55 55 55 56 55 55 55 54 54 53 53 53 52 52 52 51 52 53 53 54 54 54 54 55 55 55 55 54 55 56 56 57 57 57 57 57 56 55 54 54 54 54 55 56 54 52 52 53 53 55 56 55 54 54 54 54 53 53 53 54 54 54 54 54 54 55 55 55 55 55 55 55 55 55 55 55 55 56 56 56 56 56 56 55 55 55 55 55 55 55 55 56 59 60 61 62 62 62 62 62
55 55 55 56 56 56 56 56 55 55 54 54 53 53 53 52 52 52 52 52 53 54 55 55 56 56 57 57 57 56 55 55 56 56 57 57 57 57 57 57 57 57 57 57 58 57 57 55 53 52 52 53 53 54 56 55 55 54 54 53 53 53 53 53 54 54 54 54 54 54 54 54 54 55 55 55 55 55 55 55 55 56 56 56 56 56 55 55 55 55 55 55 55 56 57 59 60 61 62 62 62 62 62
56 55 55 56 56 56 56 55 55 55 54 54 53 53 53 52 52 52 52 52 53 55 56 56 57 57 58 58 57 57 56 56 56 56 56 56 56 57 57 57 56 56 57 57 57 58 58 57 56 55 53 53 53 53 53 55 56 56 55 54 54 54 54 54 54 54 54 54 54 54 54 54 54 54 54 55 55 55 55 55 55 55 56 56 56 56 55 55 54 54 54 55 55 57 59 59 60 61 61 62 61 61 61
56 55 55 56 56 56 56 55 55 54 54 54 53 53 53 53 52 52 52 53 54 55 57 57 57 58 58 58 57 57 57 57 57 57 56 56 56 57 57 57 57 56 56 56 57 57 57 57 57 56 55 54 53 52 53 54 55 56 56 56 55 55 55 55 55 55 54 55 55 55 54 54 54 54 54 54 54 55 55 55 55 55 55 56 56 56 55 55 54 54 54 54 55 57 58 60 60 61 61 61 61 61 61